Tracking 20083 objects as of 8-Dec-2019
HD Live streaming from Space Station
objects crossing your sky now

FENGYUN 1C DEB

Track FENGYUN 1C DEB now!
10-day predictions


NORAD ID: 30357
Int'l Code: 1999-025ABU
Perigee: 850.4 km
Apogee: 922.3 km
Inclination: 99.1 °
Period: 102.5 minutes
Semi major axis: 7257 km
RCS: 0.042 m2 (small)
Launch date: May 10, 1999
Source: People's Republic of China (PRC)
Launch site: Taiyaun Space Center, China (TSC)

Note: This is SATELLITE DEBRIS
aabbcc
Your satellite tracking list
Your tracking list is empty




NASA's NSSDC Master Catalog

Two Line Element Set (TLE):
1 30357U 99025ABU 19341.82005722 -.00000000  00000-0  27914-4 0  9995
2 30357  99.0729  11.0320 0049559 338.0239 200.6076 14.04215453659744
Source of the keplerian elements: AFSPC